Location: Ouloum Baba
(15.0021°N, 12.6200°W)
Time: 15:15:10
(UTC+00:00)

Daily predictions for brighter satellites

Satellite Brightness Start Highest point End
(mag) Time Altitude Azimuth Time Altitude Azimuth Time Altitude Azimuth
Cosmos 2297 Rocket 2.5 19:41:40 10° NNW 19:47:17 75° WSW 19:52:55 10° S
H-2A R/B 3.2 19:43:32 10° SE 19:47:56 26° ENE 19:52:23 10° NNE
Exosat Rocket 3.7 19:43:07 10° NNW 19:48:09 76° WSW 19:53:21 10° S
SJ 16-02 1.7 19:45:49 10° N 19:50:03 46° ENE 19:54:14 10° SSE
Cosmos 1726 2.0 19:47:26 10° N 19:51:06 84° E 19:54:45 10° S
Cosmos 2322 Rocket 2.4 19:45:46 10° S 19:51:08 48° ESE 19:56:29 10° NNE
VEP-3 3.6 19:45:24 10° W 19:53:38 51° NNW 19:59:02 10° ENE
NOSS 7 (D) 4.3 19:50:43 10° SSW 19:54:05 53° ESE 19:57:04 10° NE
Cosmos 2228 4.2 19:52:24 10° NNE 19:55:57 24° E 19:59:32 10° SE
CZ-4 R/B 2.1 19:52:11 10° S 19:56:11 57° W 20:00:05 10° NNW
Cosmos 1437 3.3 19:53:30 10° SSW 19:56:27 55° W 19:59:23 10° N
SL-14 R/B 3.6 19:52:52 10° SSE 19:56:32 42° E 20:00:14 10° NNE
Meteor 2-5 Rocket 3.8 19:53:50 10° S 19:59:34 89° E 20:05:25 10° N
HJ-1C 3.5 20:02:23 10° SSE 20:05:36 55° E 20:08:50 10° N
MOS 1 Rocket 3.5 20:06:24 10° NNE 20:11:21 69° E 20:16:36 10° S
Cosmos 1937 Rocket 4.0 20:09:38 10° N 20:14:39 43° ENE 20:18:47 14° SE
CZ-3A R/B 4.3 19:46:51 10° SW 20:16:02 39° S 20:22:33 17° ESE
Cosmos 1809 Rocket 4.4 20:18:29 10° S 20:24:40 81° E 20:30:50 10° N
Meteor 1-24 Rocket 4.1 20:19:15 10° SSW 20:24:51 70° W 20:30:42 10° N
SJ-11-01 4.2 20:21:20 10° SSE 20:25:59 88° W 20:30:39 10° NNW
GPS 2-18 Rocket1 3.4 20:23:42 10° W 20:27:19 60° NNW 20:30:08 16° ENE
Cosmos 2082 3.9 20:22:10 10° NNW 20:27:44 71° WSW 20:33:19 10° S
Atlas Centaur 2 4.3 20:25:09 10° NW 20:28:56 20° N 20:33:24 10° NE
Cosmos 2360 Rocket 2.3 20:23:32 10° S 20:28:58 53° ESE 20:34:25 10° NNE
Cosmos 1626 3.3 20:26:19 10° SSW 20:29:50 44° W 20:33:23 10° N
Cosmos 2227 Rocket 3.9 20:25:23 10° NW 20:30:17 31° WSW 20:35:12 10° SSW
Cosmos 1726 Rocket 3.6 20:27:05 10° N 20:31:28 58° E 20:34:27 20° SSE
DELTA 2 R/B (1) 4.3 20:29:12 10° WSW 20:34:38 56° NW 20:40:05 10° NE
GPS 2-15 Rocket1 3.9 20:30:03 10° WNW 20:34:50 50° N 20:38:16 18° ENE
CZ-2C R/B 3.8 20:30:42 10° NNE 20:35:25 62° ESE 20:40:06 10° S
Cosmos 2333 Rocket 3.9 20:39:22 14° ENE 20:39:22 14° ENE 20:40:44 10° ENE
Cosmos 2263 Rocket 3.3 20:34:55 10° NNE 20:39:16 23° ENE 20:40:18 22° E
Hubble Space Telescope 0.7 20:38:17 10° SW 20:42:22 65° SSE 20:43:58 34° E
Cosmos 1818 4.0 20:38:51 10° SSW 20:44:10 63° WNW 20:49:32 10° NNE
SL-08 RB Rocket 3.7 20:42:33 32° SE 20:44:23 56° ENE 20:48:44 10° N
Resurs 01 Rocket 3.8 20:45:41 11° ENE 20:45:41 11° ENE 20:46:22 10° NE
CZ-2C R/B 3.7 20:38:47 10° S 20:44:32 64° WSW 20:50:10 10° NNW
ARGOS 3.1 20:42:38 17° SSE 20:46:57 89° ENE 20:52:23 10° NNW
SL-16 R/B 4.1 20:42:48 10° SW 20:47:45 32° WNW 20:52:45 10° N
USA 186 1.8 20:48:12 44° S 20:49:10 80° W 20:52:30 10° NNW
Palapa B4 Rocket 4.2 20:41:44 10° WSW 20:51:04 65° SSE 20:54:04 31° E
SL-08 R/B 4.5 20:45:05 11° S 20:51:09 64° E 20:57:19 10° NNE
Delta 142 3.4 20:49:22 10° WNW 20:54:11 85° NNE 20:55:09 53° ESE
Milstar 3 Cent rocket 2.1 20:52:29 10° WNW 20:57:10 84° SSW 20:59:24 40° ESE
ATLAS 5 CENTAUR R/B 3.3 20:58:03 10° SW 21:01:33 29° WNW 21:05:07 10° N
FREGAT/IRIS 4.1 21:04:12 32° NW 21:04:12 32° NW 21:05:58 10° NNW
CZ-2C R/B 3.5 20:58:36 10° N 21:03:40 48° WNW 21:08:38 10° SSW
Cosmos 1626 Rocket 4.1 21:04:04 17° SSW 21:07:19 58° W 21:11:41 10° N
Cosmos 2058 Rocket 3.1 21:03:01 10° N 21:07:29 79° W 21:08:33 51° S
Cosmos 2150 Rocket 4.5 21:05:03 10° N 21:09:47 42° ENE 21:09:47 42° ENE
Ariane Rocket 3.6 21:09:39 24° SSW 21:12:30 52° WSW 21:17:27 10° NNW
GEOS 3 Rocket 4.4 21:08:19 10° NNE 21:13:30 52° WNW 21:18:39 10° SW
USA 215 3.8 21:10:40 10° NNE 21:17:03 59° NW 21:23:24 10° SW
Resurs 1-3 4.1 21:20:30 48° NNE 21:20:30 48° NNE 21:23:52 10° N
Centaur Rocket 4.1 21:03:55 10° W 21:20:29 71° SSW 21:21:52 55° SE
Cosmos 1745 Rocket 3.8 21:20:15 42° S 21:22:32 87° E 21:28:44 10° N
H-2A R/B 4.2 21:22:56 10° SSW 21:27:06 23° W 21:31:19 10° NW
Cosmos 2227 4.1 21:22:18 10° NNW 21:28:03 87° WSW 21:28:34 75° S
SPOT 3 Rocket 3.5 21:35:06 80° NW 21:35:06 80° NW 21:40:02 10° NNW
Cosmos 1125 Rocket 4.5 21:34:57 10° N 21:38:22 37° NNE 21:38:22 37° NNE
COSMOS 2428 3.8 21:57:26 35° N 21:57:26 35° N 22:00:37 10° NNE
Cosmos 1709 Rocket 4.5 22:08:49 56° NNW 22:08:49 56° NNW 22:13:48 10° N
ATLAS CENTAUR R/B 4.3 22:06:18 10° NNW 22:07:27 23° NNW 22:07:27 23° NNW
Cosmos 2219 Rocket 3.4 22:12:14 38° NNW 22:12:14 38° NNW 22:16:08 10° N
Atlas Centaur 2 4.5 22:14:51 10° NW 22:19:34 21° N 22:21:21 19° NNE
Resurs 01 Rocket 4.3 22:23:15 17° NW 22:23:15 17° NW 22:24:32 10° NW
Cosmos 2333 Rocket 3.6 22:21:13 33° WNW 22:21:13 33° WNW 22:25:58 10° N
Cosmos 2263 Rocket 4.0 22:18:25 10° NW 22:22:01 25° W 22:22:01 25° W
